Regional Weather Roundup
Issued by NWS Charleston, SC

Current Version | Previous Version | Graphics & Text | Print | Product List | Glossary On
Versions: 1 2 3 4 5 6 7 8 9 10 11 12 13 14 15 16 17 18 19 20 21 22 23 24 25 26 27 28 29 30 31 32 33 34 35 36 37 38 39 40 41 42 43 44 45 46 47 48 49 50
146
ASUS42 KCHS 281713
RWRCHS

REGIONAL WEATHER ROUNDUP
NATIONAL WEATHER SERVICE CHARLESTON SC
100 PM EDT THU APR 28 2016

NOTE: "FAIR" INDICATES FEW OR NO CLOUDS BELOW 12,000 FEET WITH NO
SIGNIFICANT WEATHER AND/OR OBSTRUCTIONS TO VISIBILITY.

NOT ALL STATIONS ARE QUALITY CONTROLLED. USE DATA WITH CAUTION...
ESPECIALLY DEWPOINT OBSERVATIONS.

SCZ027-030-031-034>040-042>050-281800-
...SOUTHEAST SOUTH CAROLINA...

CITY           SKY/WX    TMP DP  RH WIND       PRES   REMARKS
N CHARLESTON   MOSUNNY   83  67  58 SW7       29.95F
WATERFRONT PRK   N/A     79  69  71 SW6       29.94F
MOUNT PLEASANT FAIR      82  70  65 CALM      29.96F
JOHNS ISLAND   FAIR      82  72  69 S13       29.97F
PINOPOLIS        N/A     82  70  65 CALM      29.90F
MONCKS CORNER  FAIR      79  63  57 S8        29.95F
SUMMERVILLE    FAIR      82  70  65 S5        29.97F
BEAUFORT MCAS  MOSUNNY   87  69  54 SW12G20   29.96F HX  91
BEAUFORT ARPT  FAIR      81  68  65 S6        29.96F
HILTON HEAD IS MOSUNNY   86  72  62 S10       29.99S HX  92
WALTERBORO     MOSUNNY   84  70  61 W3        29.97S
ALLENDALE      PTSUNNY   82  68  61 SW6       29.95F

...SOUTHERN MIDLANDS AND PEE DEE...

CITY           SKY/WX    TMP DP  RH WIND       PRES   REMARKS
GEORGETOWN     FAIR      79  63  57 SW6       29.97F
KINGSTREE      FAIR      81  64  57 SW6       29.95F
ORANGEBURG     MOSUNNY   83  67  58 W10       29.95F
BARNWELL       FAIR      84  72  65 W9G17     29.96F
AIKEN          PTSUNNY   81  66  61 SW9       29.98F
MANNING        NOT AVBL
COLUMBIA       PTSUNNY   82  66  58 W16       29.94F
SUMTER         PTSUNNY   79  68  69 SW13      29.93S
FLORENCE       SUNNY     83  66  56 SW14      29.93F
MYRTLE BEACH   NOT AVBL
N MYRTLE BEACH CLOUDY    74  68  81 S12       29.96S

$$

GAZ063-065-086>088-099>101-113>116-118-119-134>141-150-281800-
...SOUTHEAST GEORGIA...

CITY           SKY/WX    TMP DP  RH WIND       PRES   REMARKS
SAVANNAH ARPT  PTSUNNY   84  66  54 SW10      29.97F
HUNTER AAF     MOSUNNY   85  70  61 SW9       29.95F
FORT STEWART   MOSUNNY   84  67  56 W12       29.95F
STATESBORO     PTSUNNY   86  72  62 SW10      29.96F HX  92
SYLVANIA       CLOUDY    83  71  66 W6        29.97F
CLAXTON        FAIR      83  71  68 SW7       29.97F

...CSRA...CENTRAL AND FAR SOUTHEAST GEORGIA...

CITY           SKY/WX    TMP DP  RH WIND       PRES   REMARKS
THOMSON        MOSUNNY   82  71  68 W3        30.00F
AUGUSTA-BUSH   PTSUNNY   80  67  64 S15G21    29.94F
AUGUSTA-DANIEL PTSUNNY   81  66  60 VRB7      29.96F
SWAINSBORO     PTSUNNY   79  70  73 W7        29.99F
VIDALIA        PTSUNNY   81  70  69 SW6       29.98F
EASTMAN        PTSUNNY   83  70  64 W8        29.99F THUNDER
HAZLEHURST     FAIR      84  70  63 S6        29.96F
ALMA           CLOUDY    81  69  67 SW9       29.98F
WAYCROSS       CLOUDY    82  69  64 W9G17     29.99F
JESUP          PTSUNNY   86  72  62 W8        29.98F HX  92
BAXLEY         PTSUNNY   82  72  69 S5        29.98F
BRUNSWICK      MOSUNNY   90  68  48 SW7       29.98F HX  93
SAINT SIMONS   SUNNY     82  68  62 S8        29.98F

$$

SCZ027-028-034-036>038-045-046-048>050-GAZ119-141-281800-
...LAKE AND SUPPLEMENTAL COASTAL OBSERVATIONS...

STATION/POSITION TIME  TEMP    WIND        PRES    WAVE   SWELL
                       AIR SEA DIR/SP/G            HT/PER HT/PER/DIR
                 (UTC) (F)     (DEG/KT/KT) (MB)    (FT/S) (FT/S/D)
WINYAH BAY       1545   75     280/  6     1015.0
LAKE MURRAY      1600   74     210/  6/  8 1013.9S
ACE BASIN NERRS  NOT AVBL
FORT PULASKI     1600   80 71  150/  5/  9 1015.7R
SAPELO ISLAND    1600   81     220/  6     1016.0R

$$

ANZ835-935-AMZ111-154-330-350-352-354-370-450-454-472-281800-
...C-MAN AND BUOY OBSERVATIONS...

STATION/POSITION TIME  TEMP    WIND        PRES    WAVE   SWELL
                       AIR SEA DIR/SP/G            HT/PER HT/PER/DIR
                 (UTC) (F)     (DEG/KT/KT) (MB)    (FT/S) (FT/S/D)
BUOY 41004       1650   72 72  220/  8/ 10 1015.0F   3/ 5   2/ 5
BUOY 41008       NOT AVBL
FOLLY BEACH CMAN 1600   73     200/  8/  9 1015.5S
CAPERS NEARSHORE 1608   71 70  220/  8/ 12 1015.1R
FRIPP NEARSHORE  1608   71 71  200/  8/ 12 1015.0S


STATION/POSITION TIME  TEMP    WIND        PRES    WAVE   SWELL
                       AIR SEA DIR/SP/G            HT/PER HT/PER/DIR
                 (UTC) (F)     (DEG/KT/KT) (MB)    (FT/S) (FT/S/D)
5E ST. MARYS GA  1621      72                N/A     2/ 4
FRYING PAN BUOY  1600   72 70  230/ 14/ 17 1015.5R
BUOY 41025       1650   73 72  220/ 16/ 17 1013.9F   3/ 6   2/200/ 6
CAPE LOOKOUT NC  1600   73     220/  9/ 11 1014.4F
BUOY 41002       1650   71 72  190/  6/  8 1017.7F   2/11   2/120/11
BUOY 41010       1620   76 77  180/  6/  8 1017.2F
ST AUGUSTINE FL  1700   74 70  130/  9/ 10 1016.7F


$$




USA.gov is the U.S. government's official web portal to all federal, state and local government web resources and services.